Location: Arnold
(38.6403°N, 100.0462°W)
Time: 00:44:51
(UTC-05:00)

ISS - Visible Passes

Search period start: 18 October 2018 00:00
Search period end: 28 October 2018 00:00
Orbit: 403 x 408 km, 51.6° (Epoch: 18 October)

Date Brightness Start Highest point End Pass type
(mag) Time Alt. Az. Time Alt. Az. Time Alt. Az.
25 Oct -1.5 07:04:03 10° S 07:06:46 25° SE 07:09:31 10° ENE visible
26 Oct -0.8 06:13:26 10° SSE 06:14:58 13° SE 06:16:30 10° E visible
27 Oct -3.6 06:56:03 11° SW 06:59:04 68° SE 07:02:20 10° NE visible
